Regional Weather Roundup
Issued by NWS

Home | Current Version | Previous Version | Text Only | Print | Product List | Glossary Off
Versions: 1 2 3 4 5 6 7 8 9 10 11 12 13 14 15 16 17 18 19 20 21 22 23 24 25 26 27 28 29 30 31 32 33 34 35 36 37 38 39 40 41 42 43 44 45 46 47 48 49 50

000
ASUS43 KMPX 231601
RWRMN
WEATHER ROUNDUP FOR MINNESOTA
NATIONAL WEATHER SERVICE TWIN CITIES/CHANHASSEN MN
1100 AM CDT TUE MAY 23 2017


NOTE: "FAIR" INDICATES FEW OR NO CLOUDS BELOW 12,000 FEET WITH NO
SIGNIFICANT WEATHER AND/OR OBSTRUCTIONS TO VISIBILITY. N/A MEANS
CURRENT SKY AND/OR WEATHER CONDITIONS ARE NOT AVAILABLE.

MNZ060>063-068>070-231700-
   Twin Cities Metro

CITY           SKY/WX    TMP DP  RH WIND       PRES   REMARKS
TWIN CITIES    CLOUDY    56  45  66 VRB6      29.83S
ST PAUL        CLOUDY    55  47  74 E6        29.84S
CRYSTAL        CLOUDY    55  44  66 N6        29.82S
BLAINE         CLOUDY    59  46  63 NE8       29.83S
LAKEVILLE      DRIZZLE   54  48  82 NE5       29.82S
EDEN PRAIRIE   CLOUDY    56  47  71 N6        29.82S
SOUTH ST PAUL  MOSUNNY   55  47  74 NE5       29.83S
LAKE ELMO      DRIZZLE   54  48  82 N3        29.84S
$$
MNZ001>005-007-008-013>017-022>024-027-028-231700-
   Northwest Minnesota

CITY           SKY/WX    TMP DP  RH WIND       PRES   REMARKS
BEMIDJI        CLOUDY    47  45  93 N12G18    29.93S
HALLOCK        PTSUNNY   57  45  62 NE14G21   30.03S
ROSEAU         CLOUDY    55  45  67 NE23      30.01S
WARROAD        PTSUNNY   54  45  71 NE18G29   30.02R
CROOKSTON        N/A     52  45  76 NE12G20   30.00S
FOSSTON        MIX PCPN  46  45  93 N13G18    29.96S
DETROIT LAKES  DRIZZLE   50  46  87 NE10      29.92S
MOORHEAD       CLOUDY    48  46  93 N15G22    29.96R
PARK RAPIDS    LGT RAIN  53  41  63 E9        29.90S
MAHNOMEN       CLOUDY    48  45  88 N21       29.94R
$$
MNZ006-009>011-018-025>026-231700-
   North Central Minnesota

CITY           SKY/WX    TMP DP  RH WIND       PRES   REMARKS
BAUDETTE       CLOUDY    50  42  74 NE13      29.99R
FLAG ISLAND    CLOUDY    52  39  62 N17       30.01S
INTL FALLS     CLOUDY    48  43  82 NE12      29.96R
WASKISH        CLOUDY    50  46  87 NE9       29.96R
BIG FORK       CLOUDY    48  46  93 NE8       29.92S FOG
LONGVILLE      CLOUDY    52  43  71 N5        29.90S
GRAND RAPIDS   CLOUDY    51  42  71 VRB7      29.92R
CRANE LAKE     CLOUDY    46  45  93 NE5       29.95S
ORR            CLOUDY    48  43  81 N3        29.90S
COOK           CLOUDY    48  46  93 N7        29.92R
WALKER         CLOUDY    50  44  79 NE7       29.91R
$$
MNZ012-019>021-037-231700-
   Northeast Minnesota

CITY           SKY/WX    TMP DP  RH WIND       PRES   REMARKS
DULUTH         CLOUDY    51  44  77 E10       29.88R
ELY            CLOUDY    48  46  93 NE3       29.91R
HIBBING        CLOUDY    52  45  77 N8        29.89S
EVELETH        MOSUNNY   52  43  71 NE9       29.90S
DULUTH HARBOR  CLOUDY    46  45  93 NE3       29.90S
TWO HARBORS    CLOUDY    52  46  82 E10       29.88R
SILVER BAY     CLOUDY    50  46  87 E10       29.89R
GRAND MARAIS     N/A     46  43  89 CALM      29.90R
G MARAIS ARPRT CLOUDY    46  39  76 NE9       29.90S
$$
MNZ029>031-032-039>041-046>048-054>057-064-231700-
   West Central Minnesota

CITY           SKY/WX    TMP DP  RH WIND       PRES   REMARKS
FERGUS FALLS   CLOUDY    52  46  82 N10G16    29.89S
WHEATON        CLOUDY    50  45  81 N16G23    29.93S
MORRIS         LGT RAIN  52  48  87 N10       29.88S
ALEXANDRIA     CLOUDY    50  44  80 NE14      29.88S
ELBOW LAKE     CLOUDY    50  47  87 NE12      29.89S
WADENA         CLOUDY    48  45  87 NE8       29.89S
GLENWOOD       CLOUDY    52  46  82 NE13      29.88S
APPLETON       CLOUDY    54  46  76 N13G20    29.88S
BENSON         RAIN      48  45  87 E5        29.89S
ORTONVILLE     CLOUDY    50  46  87 N17       29.90S
MADISON        LGT RAIN  54  52  94 N16       29.89S
WILLMAR        PTSUNNY   54  46  76 NE9       29.87F
$$
MNZ033>034-036-042>043-049>051-058-059-231700-
   Central Minnesota

CITY           SKY/WX    TMP DP  RH WIND       PRES   REMARKS
ST CLOUD       CLOUDY    52  47  83 N5        29.85S
SAUK CENTRE    CLOUDY    48  44  86 NE10G16   29.88S
PAYNESVILLE    CLOUDY    49  48  94 N10       29.87S
AITKIN         CLOUDY    52  43  71 NE8       29.87S
PINE RIVER     CLOUDY    52  45  76 N9        29.92S
BRAINERD       CLOUDY    52  43  71 NE10      29.88F
STAPLES        CLOUDY    50  43  76 NE6       29.89S
LONG PRAIRIE   CLOUDY    46  45  93 N8        29.89S
LITTLE FALLS   CLOUDY    50  45  81 N5        29.87F
LITCHFIELD     CLOUDY    52  46  82 N8          N/A
BUFFALO        DRIZZLE   49  46  88 N6        29.86S
MAPLE LAKE     DRIZZLE   51  48  90 N3        29.86S
HUTCHINSON     CLOUDY    52  47  84 N6        29.86S
$$
MNZ037-044-045-052-053-231700-
   East Central Minnesota

CITY           SKY/WX    TMP DP  RH WIND       PRES   REMARKS
PRINCETON      CLOUDY    55  46  71 NW6       29.85S
MORA           MOSUNNY   55  43  62 NE6       29.86S
CAMBRIDGE      PTSUNNY   61  46  59 NW6       29.82F
RUSH CITY      PTSUNNY   55  46  70 N6        29.85S
MOOSE LAKE     CLOUDY    54  43  66 NE7       29.85S
HINCKLEY       PTSUNNY   59  45  58 E6        29.85S
CLOQUET        CLOUDY    52  41  66 E7        29.88R
MCGREGOR       CLOUDY    52  43  71 N8        29.89R
$$
MNZ071>073-080-081-089-090-097-098-231700-
   Southwest Minnesota

CITY           SKY/WX    TMP DP  RH WIND       PRES   REMARKS
MONTEVIDEO     DRIZZLE   50  50 100 NE15      29.87F
CANBY          CLOUDY    51  46  83 NW12G18   29.90S
MARSHALL       CLOUDY    50  46  86 N14       29.88S
REDWOOD FALLS  CLOUDY    51  44  77 N9        29.85F
OLIVIA         CLOUDY    52  45  76 N7        29.85S
PIPESTONE      LGT RAIN  50  41  71 N9G18     29.88R
WINDOM         CLOUDY    52  45  76 NW14      29.85S
WORTHINGTON    LGT RAIN  49  46  90 NW12      29.87S
JACKSON        CLOUDY    50  43  76 N8        29.85S
TRACY          DRIZZLE   50  47  88 N13       29.87S
SLAYTON        LGT RAIN  46  44  94 N12       29.88S
$$
MNZ065>067-074>077-082>085-091>093-231700-
   South Central Minnesota

CITY           SKY/WX    TMP DP  RH WIND       PRES   REMARKS
MANKATO        LGT RAIN  51  46  83 NW7       29.83F
NEW ULM        CLOUDY    50  45  81 NW7       29.84S
ST JAMES       LGT RAIN  50  46  87 NW15      29.85S
FAIRMONT       CLOUDY    50  44  80 N14       29.84F
GLENCOE        CLOUDY    50  50 100 N9        29.84R
FARIBAULT      LGT RAIN  52  48  87 NW3       29.83S
OWATONNA       LGT RAIN  52  46  82 N6        29.82S
WASECA         LGT RAIN  52  48  87 NW8       29.83S
ALBERT LEA     LGT RAIN  54  48  82 CALM      29.82S
$$
MNZ078>079-086>088-094>096-231700-
   Southeast Minnesota

CITY           SKY/WX    TMP DP  RH WIND       PRES   REMARKS
ROCHESTER      RAIN      51  49  92 N6        29.82R FOG
RED WING       LGT RAIN  54  45  71 E3        29.81S
STANTON        DRIZZLE   54  49  82 N7        29.81S
DODGE CENTER   CLOUDY    54  46  76 N9        29.81S
WINONA         CLOUDY    54  50  87 NE3       29.79S
AUSTIN         CLOUDY    52  46  82 NW6       29.80S
PRESTON        CLOUDY    49  47  92 NW7       29.80S
$$
ABBREVIATIONS USED IN REMARKS
   TC - TEMPERATURES IN CELSIUS
  WCI - WIND CHILL INDEX
   HX - HEAT INDEX
  VSB - VISIBILITY
$$




USA.gov is the U.S. government's official web portal to all federal, state and local government web resources and services.